カタログに戻る

ARIANE 2 DEB

LostGTO
NORAD 23243·DEBRIS·🇫🇷 France

打ち上げ Apr 2, 1989 から Guiana Space Centre

Loading…

TLE

古いSource: Space-Track

元期: Jan 8, 2026, 04:39 UTC

1 23243U 89027C   26008.19385668  .00001118  00000-0  14922-1 0  9992
2 23243   2.3102 151.2004 7189803 259.7327  19.0497  2.22861872 51068

AllMySatでARIANE 2 DEBをリアルタイム追跡

Download on the App Store